Marshfield, WI

10:47 AM CDT on September 22, 2017 (GMT -0500)
Marshfield Municipal

Weather History for KMFI - October, 2011

Change the Weather History Date:

Saturday, October 22, 2011

  Actual Average Record
Temperature  
Mean Temperature 46 °F -  
Max Temperature 57 °F 56 °F 81 °F (1947)
Min Temperature 36 °F 33 °F 13 °F (1913)
Degree Days  
Heating Degree Days 18    
Moisture  
Dew Point 32 °F    
Average Humidity 63    
Maximum Humidity 79    
Minimum Humidity 42    
Precipitation  
Precipitation 0.00 in - - ()
Sea Level Pressure  
Sea Level Pressure 30.04 in    
Wind  
Wind Speed 4 mph (NW)    
Max Wind Speed 9 mph    
Max Gust Speed -    
Visibility 10 miles    
Events      
Averages and records for this station are not official NWS values.
T = Trace of Precipitation, MM = Missing Value Source: NWS Daily Summary

Daily Weather History Graph

Daily Weather History Graph

Search for Another Location

Airport or City:

Trip Planner

Search our weather history database for the weather conditions in past years. The results will help you decide how hot, cold, wet, or windy it might be!

Date:

Astronomy

Oct. 22, 2011 Rise Set
Actual Time 7:24 AM CDT 6:04 PM CDT
Civil Twilight 6:55 AM CDT 6:34 PM CDT
Nautical Twilight 6:21 AM CDT 7:08 PM CDT
Astronomical Twilight 5:47 AM CDT 7:42 PM CDT
Moon 2:10 AM CDT 3:32 PM CDT
Length of Visible Light 11h 39m
Length of Day
10h 40m
Waning Crescent, 23% of the Moon is Illuminated
Oct 22
Waning Crescent
Oct 26
New
Nov 2
First Quarter
Nov 10
Full
Nov 18
Last Quarter

Hourly Weather History & Observations

Time (CDT) Temp. Windchill Dew Point Humidity Pressure Visibility Wind Dir Wind Speed Gust Speed Precip Events Conditions
12:54 AM 37.9 °F - 30.0 °F 73% 30.01 in 10.0 mi Calm Calm - N/A   Clear
2:54 AM 36.0 °F - 30.0 °F 79% 30.00 in 10.0 mi Calm Calm - N/A   Clear
3:54 AM 36.0 °F - 28.9 °F 76% 30.00 in 10.0 mi Calm Calm - N/A   Clear
4:54 AM 36.0 °F 33.3 °F 28.9 °F 76% 30.01 in 10.0 mi WNW 3.5 mph - N/A   Clear
5:54 AM 36.0 °F 32.1 °F 28.9 °F 76% 30.02 in 10.0 mi NW 4.6 mph - N/A   Clear
6:54 AM 37.9 °F 32.1 °F 28.9 °F 70% 30.04 in 10.0 mi NNW 8.1 mph - N/A   Clear
7:54 AM 37.0 °F 31.0 °F 30.0 °F 76% 30.05 in 10.0 mi NNW 8.1 mph - N/A   Clear
8:54 AM 43.0 °F 38.8 °F 33.1 °F 68% 30.07 in 10.0 mi NNW 6.9 mph - N/A   Clear
9:54 AM 48.0 °F - 35.1 °F 61% 30.07 in 10.0 mi NNW 9.2 mph - N/A   Clear
10:54 AM 52.0 °F - 37.0 °F 57% 30.07 in 10.0 mi NNW 6.9 mph - N/A   Clear
11:54 AM 54.0 °F - 37.0 °F 53% 30.07 in 10.0 mi North 9.2 mph - N/A   Clear
1:54 PM 55.9 °F - 35.1 °F 45% 30.05 in 10.0 mi NW 9.2 mph - N/A   Clear
2:54 PM 57.9 °F - 35.1 °F 42% 30.04 in 10.0 mi NNW 9.2 mph - N/A   Clear
3:54 PM 57.9 °F - 35.1 °F 42% 30.04 in 10.0 mi NW 5.8 mph - N/A   Clear
4:54 PM 57.0 °F - 34.0 °F 42% 30.04 in 10.0 mi NW 6.9 mph - N/A   Clear
5:54 PM 51.1 °F - 33.1 °F 50% 30.04 in 10.0 mi WNW 3.5 mph - N/A   Clear
6:54 PM 45.0 °F - 33.1 °F 63% 30.06 in 8.0 mi Calm Calm - N/A   Clear
7:54 PM 44.1 °F 41.5 °F 32.0 °F 63% 30.06 in 10.0 mi North 4.6 mph - N/A   Clear
8:54 PM 42.1 °F - 30.9 °F 65% 30.05 in 10.0 mi Calm Calm - N/A   Clear
9:54 PM 39.0 °F - 30.9 °F 73% 30.05 in 10.0 mi Calm Calm - N/A   Clear
11:54 PM 36.0 °F - 30.0 °F 79% 30.02 in 10.0 mi Calm Calm - N/A   Clear